Skip Page Navigation
NASA JPL Caltech
NASA Logo - Jet Propulsion Laboratory + View the NASA Portal
+ Near-Earth Object (NEO) Program
Search JPL
JPL Home Earth Solar System Stars & Galaxies Technology
JPL Solar System Dynamics
BODIES ORBITS EPHEMERIDES TOOLS PHYSICAL DATA DISCOVERY FAQ SITE MAP
JPL Small-Body Database Browser
Search: [ help ]  
(2003 SS84)
Classification: Apollo [NEO, PHA]          SPK-ID: 3160741
Ephemeris | Orbit Diagram | Orbital Elements | Physical Parameters | Close-Approach Data ]

[ hide orbit diagram ]
Orbit Diagram
Note: Make sure you have Java enabled on your browser to see the applet. This applet is provided as a 3D orbit visualization tool. The applet was implemented using 2-body methods, and hence should not be used for determining accurate long-term trajectories (over several years or decades) or planetary encounter circumstances. For accurate long-term ephemerides, please instead use our Horizons system.
Orbit Viewer

Additional Notes: the orbits shown in the applet are color coded. The planets are white lines, and the asteroid/comet is a blue line. The bright white line indicates the portion of the orbit that is above the ecliptic plane, and the darker portion is below the ecliptic plane. Likewise for the asteroid/comet orbit, the light blue indicates the portion above the ecliptic plane, and the dark blue the portion below the ecliptic plane.

Orbit Viewer applet originally written and kindly provided by Osamu Ajiki (AstroArts), and further modified by Ron Baalke (JPL).


Orbital Elements at Epoch 2456400.5 (2013-Apr-18.0) TDB
Reference: JPL 35 (heliocentric ecliptic J2000)
 Element Value Uncertainty (1-sigma)   Units 
e .5707439387966777 5.4841e-08  
a 1.930741645136973 4.9399e-08 AU
q .8287825537927198 1.0389e-07 AU
i 5.49589076108776 7.7371e-06 deg
node 198.3777459624422 1.509e-05 deg
peri 234.6192346013695 1.7373e-05 deg
M 182.9621910325472 5.1217e-05 deg
tp 2456882.390315586529
(2014-Aug-12.89031559)
0.00015789 JED
period 979.9065782781108
2.68
3.7607e-05
1.03e-07
d
yr
n .3673819606687313 1.4099e-08 deg/d
Q 3.032700736481227 7.7593e-08 AU
  Orbit Determination Parameters
   # obs. used (total)      247  
   # delay obs. used      3  
   # Doppler obs. used      1  
   data-arc span      2906 days (7.96 yr)  
   first obs. used      2003-09-20  
   last obs. used      2011-09-04  
   planetary ephem.      DE405  
   SB-pert. ephem.      SB405-CPV-2  
   condition code      0  
   fit RMS      .46829  
   data source      ORB  
   producer      Otto Matic  
   solution date      2011-Sep-14 19:51:54  

Additional Information
 Earth MOID = .00535166 AU 
 T_jup = 3.691 
[ show covariance matrix ]

Ephemeris | Orbit Diagram | Orbital Elements | Physical Parameters | Close-Approach Data ]

Physical Parameter Table
Parameter Symbol Value Units Sigma Reference Notes
absolute magnitude H 21.799 mag .45089 35 autocmod 2.5a

[ show close-approach data ]
Ephemeris | Orbit Diagram | Orbital Elements | Physical Parameters | Close-Approach Data ]
ABOUT SSD CREDITS/AWARDS PRIVACY/COPYRIGHT GLOSSARY LINKS
FirstGov 2013-May-20 17:52 UT
(server date/time)  
NASA Home Page
Site Manager:   Donald K. Yeomans
Webmaster  Alan B. Chamberlin